Orbital Elements at Epoch 2459200.5 (2020-Dec-17.0) TDB
Reference: JPL 24 (heliocentric ecliptic J2000)
Element | Value | Uncertainty (1-sigma) | Units |
e | .1931918904968118 | 4.7574e-08 | |
a | 2.54418107287815 | 9.4264e-09 | au |
q | 2.052665921642613 | 1.2218e-07 | au |
i | 3.154452989553678 | 3.4443e-06 | deg |
node | 65.8484596285392 | 0.00014065 | deg |
peri | 223.0793288980666 | 0.00014192 | deg |
M | 144.3278765008553 | 1.945e-05 | deg |
tp | 2458606.251390601276 (2019-May-02.75139060) | 8.0661e-05 | TDB |
period | 1482.246566430103 4.06 | 8.2377e-06 2.255e-08 | d yr |
n | .2428745717165244 | 1.3498e-09 | deg/d |
Q | 3.035696224113686 | 1.1247e-08 | au |
|
| | Orbit Determination Parameters
Additional Information
|